Flag for United Kingdom Weather past 2 weeks in Chichester, England, United Kingdom

Now
46 °F

Cool.


Feels Like: 42 °F
Forecast: 40 / 50 °F
Wind: 9 mph from South

Location: Thorney Island

Current Time: Mar 6, 2015 at 11:22:30 AM

Latest Report: Mar 6, 2015 at 10:00 AM


Visibility: 9 mi

Pressure: 30.62 "Hg

Humidity: 92%

Dew point: 44 °F

Location of ChichesterLocation

Historic Weather in Chichester — Graph

°F

Chichester temperature yesterday

Maximum temperature yesterday: 51 °F (at 2:00 PM)
Minimum temperature yesterday: 29 °F (at 7:00 AM)
Average temperature yesterday: 41 °F

Past Weeks' High & Low Weather Summary

 TemperatureHumidityPressure
High54 °F (Feb 25, 2:00 PM)99% (Feb 26, 8:00 AM)30.73 "Hg (Feb 26, 8:00 AM)
Low26 °F (Feb 22, 7:00 AM)48% (Mar 2, 1:00 PM)29.29 "Hg (Feb 23, 1:00 AM)
Average43 °F82%29.93 "Hg
* Reported Feb 19 12:00 Noon — Mar 6 10:00 AM, Chichester, Weather by CustomWeather, © 2015

Note: Actual official high and low records may vary slightly from our data, if they occured in-between our weather recording intervals... More about our weather records

Advertising

Chichester weather history for previous 24 hours

 ConditionsComfort  
Time TempWeatherWind HumidityBarometerVisibility
10:00 AM
Fri, Mar 6
46 °FCool.9 mph92%30.62 "Hg9 mi
9:00 AM44 °FQuite cool.3 mph99%30.63 "Hg11 mi
8:00 AM37 °FChilly.3 mph99%30.62 "Hg3 mi
7:00 AM36 °FChilly.2 mph98%30.60 "Hg2 mi
6:00 AM35 °FDuststorm.2 mph99%30.62 "Hg1 mi
4:00 AM36 °FDuststorm.2 mph98%30.63 "Hg0 mi
3:00 AM36 °FDuststorm.1 mph98%30.63 "Hg0 mi
2:00 AM38 °FFog.1 mph98%30.64 "Hg4 mi
1:00 AM38 °FChilly.1 mph98%30.65 "Hg4 mi
12:00 AM35 °FDuststorm.2 mph97%30.66 "Hg0 mi
11:00 PM
Thu, Mar 5
41 °FFog.1 mph97%30.66 "Hg4 mi
10:00 PM41 °FQuite cool.3 mph96%30.67 "Hg9 mi
9:00 PM41 °FQuite cool.7 mph93%30.66 "Hg11 mi
8:00 PM43 °FQuite cool.3 mph93%30.67 "Hg14 mi
7:00 PM43 °FQuite cool.7 mph90%30.66 "Hg14 mi
6:00 PM46 °FCool.10 mph84%30.66 "Hg14 mi
5:00 PM48 °FCool.14 mph76%30.67 "Hg19 mi
4:00 PM50 °FCool.13 mph74%30.67 "Hg16 mi
3:00 PM51 °FCool.13 mph64%30.68 "Hg13 mi
2:00 PM51 °FCool.12 mph60%30.68 "Hg19 mi
1:00 PM51 °FCool.10 mph66%30.69 "Hg12 mi
12:00 PM49 °FCool.8 mph66%30.72 "Hg12 mi
11:00 AM47 °FCool.7 mph74%30.73 "Hg12 mi
Weather by CustomWeather, © 2015

See weather overviewHow to use our weather pages